Weather History for Spencer, IA

Change the Weather History Date:

Thursday, March 7, 2013

  Actual Average Record
Temperature  
Mean Temperature 25 °F -  
Max Temperature 33 °F 35 °F 74 °F (1987)
Min Temperature 17 °F 16 °F -9 °F (2008)
Degree Days  
Heating Degree Days 40    
Moisture  
Dew Point 19 °F    
Average Humidity 81    
Maximum Humidity 88    
Minimum Humidity 72    
Precipitation  
Precipitation 0.06 in - - ()
Sea Level Pressure  
Sea Level Pressure 30.29 in    
Wind  
Wind Speed 12 mph (SE)    
Max Wind Speed 18 mph    
Max Gust Speed 23 mph    
Visibility 8 miles    
Events      
Averages and records for this station are not official NWS values.
T = Trace of Precipitation, MM = Missing Value Source: NWS Daily Summary

Daily Weather History Graph

Daily Weather History Graph

Search for Another Location

Airport:

Trip Planner

Search our weather history database for the weather conditions in past years. The results will help you decide how hot, cold, wet, or windy it might be!

Date:

Astronomy

Mar. 07, 2013 Rise Set
Actual Time 6:46 AM CST 6:17 PM CST
Civil Twilight 6:17 AM CST 6:46 PM CST
Nautical Twilight 5:45 AM CST 7:19 PM CST
Astronomical Twilight 5:11 AM CST 7:52 PM CST
Moon 3:52 AM CST (3/7) 2:01 PM CST (3/7)
Length of Visible Light 12h 28m
Length of Day
11h 31m
Waning Crescent, 20% of the Moon is Illuminated
Mar 7
Waning Crescent
Mar 11
New
Mar 19
First Quarter
Mar 27
Full
Apr 2
Last Quarter

Hourly Weather History & Observations

Time (CST) Temp. Windchill Dew Point Humidity Pressure Visibility Wind Dir Wind Speed Gust Speed Precip Events Conditions
12:53 AM 21.0 °F 12.4 °F 16.0 °F 81% 30.37 in 10.0 mi ESE 6.9 mph - N/A   Overcast
1:53 AM 19.9 °F 7.3 °F 16.0 °F 85% 30.36 in 10.0 mi ESE 12.7 mph - N/A   Overcast
2:31 AM 19.4 °F 7.2 °F 15.8 °F 86% 30.29 in 10.0 mi SE 11.5 mph - N/A   Overcast
2:53 AM 19.0 °F 7.5 °F 15.1 °F 85% 30.35 in 10.0 mi SSE 10.4 mph - N/A   Overcast
3:53 AM 19.0 °F 6.1 °F 15.1 °F 85% 30.35 in 10.0 mi SE 12.7 mph - N/A   Overcast
4:53 AM 19.0 °F 7.5 °F 15.1 °F 85% 30.35 in 10.0 mi ESE 10.4 mph - N/A   Overcast
5:04 AM 19.4 °F 8.6 °F 15.8 °F 86% 30.29 in 10.0 mi SE 9.2 mph - N/A   Overcast
5:53 AM 18.0 °F 6.1 °F 14.0 °F 84% 30.35 in 9.0 mi ESE 10.4 mph - N/A   Overcast
6:44 AM 17.6 °F 5.7 °F 12.2 °F 79% 30.28 in 7.0 mi ESE 10.4 mph - N/A   Scattered Clouds
6:53 AM 17.1 °F 5.8 °F 12.9 °F 84% 30.35 in 6.0 mi SE 9.2 mph - N/A   Partly Cloudy
7:53 AM 18.0 °F 5.4 °F 14.0 °F 84% 30.35 in 6.0 mi SE 11.5 mph - N/A   Clear
9:53 AM 24.1 °F 11.5 °F 18.0 °F 77% 30.33 in 8.0 mi SSE 15.0 mph - N/A   Clear
10:53 AM 27.0 °F 14.3 °F 21.0 °F 78% 30.30 in 8.0 mi SSE 17.3 mph - N/A   Clear
11:53 AM 30.0 °F 18.7 °F 23.0 °F 75% 30.30 in 9.0 mi SE 16.1 mph - 0.03 in   Clear
12:53 PM 32.0 °F 21.2 °F 25.0 °F 75% 30.28 in 10.0 mi SE 16.1 mph 20.7 mph 0.02 in   Clear
1:53 PM 33.1 °F 22.2 °F 26.1 °F 75% 30.25 in 9.0 mi ESE 17.3 mph - 0.01 in   Clear
2:53 PM 33.1 °F 22.6 °F 26.1 °F 75% 30.24 in 7.0 mi ESE 16.1 mph - N/A   Clear
3:53 PM 33.1 °F 22.6 °F 25.0 °F 72% 30.23 in 9.0 mi ESE 16.1 mph - N/A   Clear
4:53 PM 32.0 °F 22.1 °F 24.1 °F 73% 30.22 in 9.0 mi SE 13.8 mph - N/A   Clear
5:53 PM 30.0 °F 19.1 °F 24.1 °F 79% 30.23 in 7.0 mi SE 15.0 mph - N/A   Clear
6:53 PM 28.0 °F 15.3 °F 23.0 °F 81% 30.25 in 6.0 mi SE 18.4 mph 23.0 mph N/A   Haze
7:53 PM 27.0 °F 14.7 °F 21.9 °F 81% 30.25 in 5.0 mi SE 16.1 mph - N/A   Haze
8:53 PM 26.1 °F 16.8 °F 21.9 °F 84% 30.27 in 5.0 mi SE 9.2 mph - N/A   Clear
9:53 PM 25.0 °F 15.5 °F 21.9 °F 88% 30.28 in 5.0 mi SE 9.2 mph - N/A   Clear
10:53 PM 26.1 °F 16.2 °F 21.9 °F 84% 30.27 in 4.0 mi SE 10.4 mph - N/A   Clear
11:53 PM 24.1 °F 16.0 °F 21.0 °F 88% 30.28 in 4.0 mi SE 6.9 mph - N/A   Clear